Location: Bratsk-Energetik
(56.3300°N, 101.7600°E)
Time: 20:16:58
(UTC+08:00)

ISS - Pass Details

Date: 30 March 2017
Orbit: 399 x 409 km, 51.6° (Epoch: 23 March)

Event Time Altitude Azimuth Distance (km) Brightness Sun altitude
Rises 22:13:55 0° 241° (WSW) 2,313 0.3 -19.1°
Reaches altitude 10° 22:16:07 10° 231° (SW) 1,457 -0.9 -19.3°
Enters shadow 22:17:13 18° 219° (SW) 1,083 -1.7 -19.4°
